Year,Month,Day,Hour,Minute,Value (Times are PST for temperature in C)
2016,08,21,00,00,17.80
2016,08,21,00,01,17.80
2016,08,21,00,02,17.80
2016,08,21,00,03,17.80
2016,08,21,00,04,17.80
2016,08,21,00,05,17.80
2016,08,21,00,06,17.90
2016,08,21,00,07,17.90
2016,08,21,00,08,17.90
2016,08,21,00,09,17.90
2016,08,21,00,10,17.90
2016,08,21,00,11,17.90
2016,08,21,00,12,17.90
2016,08,21,00,13,17.90
2016,08,21,00,14,17.90
2016,08,21,00,15,17.90
2016,08,21,00,16,17.90
2016,08,21,00,17,17.80
2016,08,21,00,18,17.80
2016,08,21,00,19,17.80
2016,08,21,00,20,17.80
2016,08,21,00,21,17.80
2016,08,21,00,22,17.80
2016,08,21,00,23,17.80
2016,08,21,00,24,17.80
2016,08,21,00,25,17.80
2016,08,21,00,26,17.70
2016,08,21,00,27,17.70
2016,08,21,00,28,17.70
2016,08,21,00,29,17.70
2016,08,21,00,30,17.70
2016,08,21,00,31,17.70
2016,08,21,00,32,17.70
2016,08,21,00,33,17.70
2016,08,21,00,34,17.70
2016,08,21,00,35,17.70
2016,08,21,00,36,17.60
2016,08,21,00,37,17.60
2016,08,21,00,38,17.60
2016,08,21,00,39,17.60
2016,08,21,00,40,17.60
2016,08,21,00,41,17.60
2016,08,21,00,42,17.60
2016,08,21,00,43,17.60
2016,08,21,00,44,17.60
2016,08,21,00,45,17.60
2016,08,21,00,46,17.60
2016,08,21,00,47,17.60
2016,08,21,00,48,17.60
2016,08,21,00,49,17.60
2016,08,21,00,50,17.60
2016,08,21,00,51,17.60
2016,08,21,00,52,17.60
2016,08,21,00,53,17.60
2016,08,21,00,54,17.60
2016,08,21,00,55,17.60
2016,08,21,00,56,17.60
2016,08,21,00,57,17.60
2016,08,21,00,58,17.60
2016,08,21,00,59,17.60
2016,08,21,01,00,17.60
2016,08,21,01,01,17.60
2016,08,21,01,02,17.60
2016,08,21,01,03,17.60
2016,08,21,01,04,17.60
2016,08,21,01,05,17.60
2016,08,21,01,06,17.60
2016,08,21,01,07,17.60
2016,08,21,01,08,17.60
2016,08,21,01,09,17.60
2016,08,21,01,10,17.60
2016,08,21,01,11,17.60
2016,08,21,01,12,17.50
2016,08,21,01,13,17.50
2016,08,21,01,14,17.50
2016,08,21,01,15,17.50
2016,08,21,01,16,17.50
2016,08,21,01,17,17.50
2016,08,21,01,18,17.40
2016,08,21,01,19,17.40
2016,08,21,01,20,17.40
2016,08,21,01,21,17.40
2016,08,21,01,22,17.40
2016,08,21,01,23,17.40
2016,08,21,01,24,17.30
2016,08,21,01,25,17.30
2016,08,21,01,26,17.30
2016,08,21,01,27,17.30
2016,08,21,01,28,17.30
2016,08,21,01,29,17.30
2016,08,21,01,30,17.30
2016,08,21,01,31,17.20
2016,08,21,01,32,17.20
2016,08,21,01,33,17.20
2016,08,21,01,34,17.20
2016,08,21,01,35,17.10
2016,08,21,01,36,17.10
2016,08,21,01,37,17.10
2016,08,21,01,38,17.00
2016,08,21,01,39,17.00
2016,08,21,01,40,16.90
2016,08,21,01,41,16.90
2016,08,21,01,42,16.80
2016,08,21,01,43,16.80
2016,08,21,01,44,16.80
2016,08,21,01,45,16.70
2016,08,21,01,46,16.60
2016,08,21,01,47,16.50
2016,08,21,01,48,16.40
2016,08,21,01,49,16.40
2016,08,21,01,50,16.30
2016,08,21,01,51,16.20
2016,08,21,01,52,16.10
2016,08,21,01,53,16.10
2016,08,21,01,54,16.00
2016,08,21,01,55,15.90
2016,08,21,01,56,15.80
2016,08,21,01,57,15.80
2016,08,21,01,58,15.70
2016,08,21,01,59,15.70
2016,08,21,02,00,15.60
2016,08,21,02,01,15.60
2016,08,21,02,02,15.60
2016,08,21,02,03,15.50
2016,08,21,02,04,15.50
2016,08,21,02,05,15.40
2016,08,21,02,06,15.40
2016,08,21,02,07,15.40
2016,08,21,02,08,15.30
2016,08,21,02,09,15.30
2016,08,21,02,10,15.20
2016,08,21,02,11,15.20
2016,08,21,02,12,15.20
2016,08,21,02,13,15.10
2016,08,21,02,14,15.10
2016,08,21,02,15,15.10
2016,08,21,02,16,15.00
2016,08,21,02,17,15.00
2016,08,21,02,18,15.00
2016,08,21,02,19,14.90
2016,08,21,02,20,14.90
2016,08,21,02,21,14.90
2016,08,21,02,22,14.90
2016,08,21,02,23,14.80
2016,08,21,02,24,14.80
2016,08,21,02,25,14.80
2016,08,21,02,26,14.80
2016,08,21,02,27,14.80
2016,08,21,02,28,14.80
2016,08,21,02,29,14.80
2016,08,21,02,30,14.70
2016,08,21,02,31,14.70
2016,08,21,02,32,14.70
2016,08,21,02,33,14.70
2016,08,21,02,34,14.70
2016,08,21,02,35,14.70
2016,08,21,02,36,14.70
2016,08,21,02,37,14.70
2016,08,21,02,38,14.70
2016,08,21,02,39,14.70
2016,08,21,02,40,14.60
2016,08,21,02,41,14.60
2016,08,21,02,42,14.60
2016,08,21,02,43,14.60
2016,08,21,02,44,14.60
2016,08,21,02,45,14.60
2016,08,21,02,46,14.60
2016,08,21,02,47,14.60
2016,08,21,02,48,14.60
2016,08,21,02,49,14.60
2016,08,21,02,50,14.60
2016,08,21,02,51,14.50
2016,08,21,02,52,14.50
2016,08,21,02,53,14.50
2016,08,21,02,54,14.60
2016,08,21,02,55,14.60
2016,08,21,02,56,14.60
2016,08,21,02,57,14.60
2016,08,21,02,58,14.60
2016,08,21,02,59,14.60
2016,08,21,03,00,14.70
2016,08,21,03,01,14.70
2016,08,21,03,02,14.70
2016,08,21,03,03,14.70
2016,08,21,03,04,14.80
2016,08,21,03,05,14.80
2016,08,21,03,06,14.80
2016,08,21,03,07,14.80
2016,08,21,03,08,14.80
2016,08,21,03,09,14.80
2016,08,21,03,10,14.80
2016,08,21,03,11,14.80
2016,08,21,03,12,14.80
2016,08,21,03,13,14.80
2016,08,21,03,14,14.80
2016,08,21,03,15,14.90
2016,08,21,03,16,14.90
2016,08,21,03,17,14.90
2016,08,21,03,18,14.90
2016,08,21,03,19,14.90
2016,08,21,03,20,14.90
2016,08,21,03,21,14.90
2016,08,21,03,22,14.90
2016,08,21,03,23,14.90
2016,08,21,03,24,14.90
2016,08,21,03,25,14.90
2016,08,21,03,26,15.00
2016,08,21,03,27,15.00
2016,08,21,03,28,15.00
2016,08,21,03,29,15.00
2016,08,21,03,30,15.00
2016,08,21,03,31,15.00
2016,08,21,03,32,14.90
2016,08,21,03,33,14.90
2016,08,21,03,34,14.90
2016,08,21,03,35,14.90
2016,08,21,03,36,14.90
2016,08,21,03,37,14.90
2016,08,21,03,38,14.90
2016,08,21,03,39,14.90
2016,08,21,03,40,14.90
2016,08,21,03,41,14.90
2016,08,21,03,42,15.00
2016,08,21,03,43,15.00
2016,08,21,03,44,15.00
2016,08,21,03,45,15.00
2016,08,21,03,46,15.00
2016,08,21,03,47,15.00
2016,08,21,03,48,15.00
2016,08,21,03,49,15.00
2016,08,21,03,50,15.00
2016,08,21,03,51,15.00
2016,08,21,03,52,15.00
2016,08,21,03,53,15.00
2016,08,21,03,54,15.00
2016,08,21,03,55,15.00
2016,08,21,03,56,15.00
2016,08,21,03,57,15.00
2016,08,21,03,58,15.00
2016,08,21,03,59,15.00
2016,08,21,04,00,15.00
2016,08,21,04,01,15.00
2016,08,21,04,02,15.00
2016,08,21,04,03,15.00
2016,08,21,04,04,15.00
2016,08,21,04,08,15.00
2016,08,21,04,09,15.00
2016,08,21,04,10,15.00
2016,08,21,04,11,15.00
2016,08,21,04,12,15.00
2016,08,21,04,13,15.10
2016,08,21,04,14,15.00
2016,08,21,04,15,15.00
2016,08,21,04,16,15.00
2016,08,21,04,17,15.00
2016,08,21,04,18,15.00
2016,08,21,04,19,15.00
2016,08,21,04,20,14.90
2016,08,21,04,21,14.90
2016,08,21,04,22,14.90
2016,08,21,04,23,14.90
2016,08,21,04,24,14.90
2016,08,21,04,25,14.90
2016,08,21,04,26,14.90
2016,08,21,04,27,14.90
2016,08,21,04,28,14.90
2016,08,21,04,29,14.90
2016,08,21,04,30,14.90
2016,08,21,04,31,14.90
2016,08,21,04,32,14.90
2016,08,21,04,33,14.90
2016,08,21,04,34,14.90
2016,08,21,04,35,14.90
2016,08,21,04,36,14.90
2016,08,21,04,37,15.00
2016,08,21,04,38,14.90
2016,08,21,04,39,15.00
2016,08,21,04,40,14.90
2016,08,21,04,41,14.90
2016,08,21,04,42,15.00
2016,08,21,04,43,15.00
2016,08,21,04,44,15.00
2016,08,21,04,45,15.10
2016,08,21,04,46,15.10
2016,08,21,04,47,15.10
2016,08,21,04,48,15.10
2016,08,21,04,49,15.10
2016,08,21,04,50,15.10
2016,08,21,04,51,15.10
2016,08,21,04,52,15.10
2016,08,21,04,53,15.10
2016,08,21,04,54,15.10
2016,08,21,04,55,15.10
2016,08,21,04,56,15.10
2016,08,21,04,57,15.10
2016,08,21,04,58,15.10
2016,08,21,04,59,15.10
2016,08,21,05,00,15.10
2016,08,21,05,01,15.10
2016,08,21,05,02,15.20
2016,08,21,05,03,15.10
2016,08,21,05,04,15.10
2016,08,21,05,05,15.10
2016,08,21,05,06,15.00
2016,08,21,05,07,14.90
2016,08,21,05,08,14.90
2016,08,21,05,09,14.90
2016,08,21,05,10,14.90
2016,08,21,05,11,14.80
2016,08,21,05,12,14.80
2016,08,21,05,13,14.80
2016,08,21,05,14,14.80
2016,08,21,05,15,14.80
2016,08,21,05,16,14.80
2016,08,21,05,17,14.90
2016,08,21,05,18,14.90
2016,08,21,05,19,14.90
2016,08,21,05,20,14.80
2016,08,21,05,21,14.80
2016,08,21,05,22,14.80
2016,08,21,05,23,14.80
2016,08,21,05,24,14.80
2016,08,21,05,25,14.70
2016,08,21,05,26,14.70
2016,08,21,05,27,14.70
2016,08,21,05,28,14.70
2016,08,21,05,29,14.70
2016,08,21,05,30,14.70
2016,08,21,05,31,14.60
2016,08,21,05,32,14.60
2016,08,21,05,33,14.60
2016,08,21,05,34,14.70
2016,08,21,05,35,14.70
2016,08,21,05,36,14.60
2016,08,21,05,37,14.60
2016,08,21,05,38,14.60
2016,08,21,05,39,14.60
2016,08,21,05,40,14.60
2016,08,21,05,41,14.50
2016,08,21,05,42,14.50
2016,08,21,05,43,14.50
2016,08,21,05,44,14.50
2016,08,21,05,45,14.50
2016,08,21,05,46,14.50
2016,08,21,05,47,14.50
2016,08,21,05,48,14.50
2016,08,21,05,49,14.50
2016,08,21,05,50,14.40
2016,08,21,05,51,14.40
2016,08,21,05,52,14.40
2016,08,21,05,53,14.40
2016,08,21,05,54,14.40
2016,08,21,05,55,14.40
2016,08,21,05,56,14.40
2016,08,21,05,57,14.40
2016,08,21,05,58,14.40
2016,08,21,05,59,14.40
2016,08,21,06,00,14.40
2016,08,21,06,01,14.40
2016,08,21,06,02,14.40
2016,08,21,06,03,14.40
2016,08,21,06,04,14.30
2016,08,21,06,05,14.30
2016,08,21,06,06,14.30
2016,08,21,06,07,14.30
2016,08,21,06,08,14.30
2016,08,21,06,09,14.30
2016,08,21,06,10,14.30
2016,08,21,06,11,14.20
2016,08,21,06,12,14.20
2016,08,21,06,13,14.20
2016,08,21,06,14,14.20
2016,08,21,06,15,14.20
2016,08,21,06,16,14.20
2016,08,21,06,17,14.20
2016,08,21,06,18,14.20
2016,08,21,06,19,14.20
2016,08,21,06,20,14.20
2016,08,21,06,21,14.20
2016,08,21,06,22,14.20
2016,08,21,06,23,14.20
2016,08,21,06,24,14.10
2016,08,21,06,25,14.10
2016,08,21,06,26,14.10
2016,08,21,06,27,14.10
2016,08,21,06,28,14.10
2016,08,21,06,29,14.10
2016,08,21,06,30,14.10
2016,08,21,06,31,14.10
2016,08,21,06,32,14.00
2016,08,21,06,33,14.00
2016,08,21,06,34,13.90
2016,08,21,06,35,13.90
2016,08,21,06,36,13.90
2016,08,21,06,37,13.90
2016,08,21,06,38,13.90
2016,08,21,06,39,13.90
2016,08,21,06,40,13.90
2016,08,21,06,41,13.90
2016,08,21,06,42,13.90
2016,08,21,06,43,13.90
2016,08,21,06,44,13.90
2016,08,21,06,45,13.90
2016,08,21,06,46,13.90
2016,08,21,06,47,13.90
2016,08,21,06,48,13.90
2016,08,21,06,49,13.80
2016,08,21,06,50,13.80
2016,08,21,06,51,13.80
2016,08,21,06,52,13.70
2016,08,21,06,53,13.70
2016,08,21,06,54,13.70
2016,08,21,06,55,13.70
2016,08,21,06,56,13.70
2016,08,21,06,57,13.70
2016,08,21,06,58,13.70
2016,08,21,06,59,13.70
2016,08,21,07,00,13.70
2016,08,21,07,01,13.60
2016,08,21,07,02,13.60
2016,08,21,07,03,13.60
2016,08,21,07,04,13.60
2016,08,21,07,05,13.60
2016,08,21,07,06,13.60
2016,08,21,07,07,13.60
2016,08,21,07,08,13.60
2016,08,21,07,09,13.70
2016,08,21,07,10,13.70
2016,08,21,07,11,13.70
2016,08,21,07,12,13.70
2016,08,21,07,13,13.80
2016,08,21,07,14,13.80
2016,08,21,07,15,13.80
2016,08,21,07,16,13.80
2016,08,21,07,17,13.90
2016,08,21,07,18,13.90
2016,08,21,07,19,13.90
2016,08,21,07,20,14.00
2016,08,21,07,21,14.00
2016,08,21,07,22,14.10
2016,08,21,07,23,14.10
2016,08,21,07,24,14.10
2016,08,21,07,25,14.20
2016,08,21,07,26,14.20
2016,08,21,07,27,14.30
2016,08,21,07,28,14.30
2016,08,21,07,29,14.40
2016,08,21,07,30,14.40
2016,08,21,07,31,14.50
2016,08,21,07,32,14.60
2016,08,21,07,33,14.60
2016,08,21,07,34,14.70
2016,08,21,07,35,14.80
2016,08,21,07,36,14.80
2016,08,21,07,37,14.90
2016,08,21,07,38,15.00
2016,08,21,07,39,15.00
2016,08,21,07,40,15.10
2016,08,21,07,41,15.20
2016,08,21,07,42,15.20
2016,08,21,07,43,15.30
2016,08,21,07,44,15.40
2016,08,21,07,45,15.40
2016,08,21,07,46,15.50
2016,08,21,07,47,15.60
2016,08,21,07,48,15.60
2016,08,21,07,49,15.70
2016,08,21,07,50,15.70
2016,08,21,07,51,15.70
2016,08,21,07,52,15.70
2016,08,21,07,53,15.70
2016,08,21,07,54,15.70
2016,08,21,07,55,15.70
2016,08,21,07,56,15.70
2016,08,21,07,57,15.70
2016,08,21,07,58,15.80
2016,08,21,07,59,15.80
2016,08,21,08,00,15.80
2016,08,21,08,01,15.80
2016,08,21,08,02,15.90
2016,08,21,08,03,15.90
2016,08,21,08,04,16.00
2016,08,21,08,05,16.00
2016,08,21,08,06,16.10
2016,08,21,08,07,16.10
2016,08,21,08,08,16.10
2016,08,21,08,09,16.20
2016,08,21,08,10,16.20
2016,08,21,08,11,16.30
2016,08,21,08,12,16.30
2016,08,21,08,13,16.30
2016,08,21,08,14,16.40
2016,08,21,08,15,16.50
2016,08,21,08,16,16.50
2016,08,21,08,17,16.60
2016,08,21,08,18,16.60
2016,08,21,08,19,16.70
2016,08,21,08,20,16.80
2016,08,21,08,21,16.90
2016,08,21,08,22,17.00
2016,08,21,08,23,17.00
2016,08,21,08,24,17.10
2016,08,21,08,25,17.20
2016,08,21,08,26,17.20
2016,08,21,08,27,17.30
2016,08,21,08,28,17.30
2016,08,21,08,29,17.40
2016,08,21,08,30,17.50
2016,08,21,08,31,17.50
2016,08,21,08,32,17.60
2016,08,21,08,33,17.60
2016,08,21,08,34,17.70
2016,08,21,08,35,17.70
2016,08,21,08,36,17.80
2016,08,21,08,37,17.80
2016,08,21,08,38,17.90
2016,08,21,08,39,17.90
2016,08,21,08,40,18.00
2016,08,21,08,41,18.00
2016,08,21,08,42,18.10
2016,08,21,08,43,18.10
2016,08,21,08,44,18.10
2016,08,21,08,45,18.10
2016,08,21,08,46,18.10
2016,08,21,08,47,18.20
2016,08,21,08,48,18.20
2016,08,21,08,49,18.20
2016,08,21,08,50,18.30
2016,08,21,08,51,18.30
2016,08,21,08,52,18.30
2016,08,21,08,53,18.30
2016,08,21,08,54,18.30
2016,08,21,08,55,18.30
2016,08,21,08,56,18.30
2016,08,21,08,57,18.30
2016,08,21,08,58,18.30
2016,08,21,08,59,18.40
2016,08,21,09,00,18.40
2016,08,21,09,01,18.40
2016,08,21,09,02,18.40
2016,08,21,09,03,18.40
2016,08,21,09,04,18.50
2016,08,21,09,05,18.60
2016,08,21,09,06,18.60
2016,08,21,09,07,18.70
2016,08,21,09,08,18.70
2016,08,21,09,09,18.80
2016,08,21,09,10,18.90
2016,08,21,09,11,18.90
2016,08,21,09,12,19.00
2016,08,21,09,13,19.10
2016,08,21,09,14,19.20
2016,08,21,09,15,19.20
2016,08,21,09,16,19.30
2016,08,21,09,17,19.30
2016,08,21,09,18,19.40
2016,08,21,09,19,19.40
2016,08,21,09,20,19.40
2016,08,21,09,21,19.50
2016,08,21,09,22,19.60
2016,08,21,09,23,19.60
2016,08,21,09,24,19.70
2016,08,21,09,25,19.70
2016,08,21,09,26,19.70
2016,08,21,09,27,19.70
2016,08,21,09,28,19.70
2016,08,21,09,29,19.80
2016,08,21,09,30,19.80
2016,08,21,09,31,19.80
2016,08,21,09,32,19.90
2016,08,21,09,33,19.90
2016,08,21,09,34,19.90
2016,08,21,09,35,19.90
2016,08,21,09,36,19.90
2016,08,21,09,37,19.90
2016,08,21,09,38,20.00
2016,08,21,09,39,20.00
2016,08,21,09,40,19.90
2016,08,21,09,41,19.90
2016,08,21,09,42,19.90
2016,08,21,09,43,19.90
2016,08,21,09,44,19.90
2016,08,21,09,45,19.90
2016,08,21,09,46,19.90
2016,08,21,09,47,19.90
2016,08,21,09,48,19.90
2016,08,21,09,49,19.90
2016,08,21,09,50,19.90
2016,08,21,09,51,20.00
2016,08,21,09,52,20.00
2016,08,21,09,53,20.10
2016,08,21,09,54,20.10
2016,08,21,09,55,20.10
2016,08,21,09,56,20.10
2016,08,21,09,57,20.20
2016,08,21,09,58,20.20
2016,08,21,09,59,20.30
2016,08,21,10,00,20.30
2016,08,21,10,01,20.30
2016,08,21,10,02,20.40
2016,08,21,10,03,20.40
2016,08,21,10,04,20.30
2016,08,21,10,05,20.30
2016,08,21,10,06,20.30
2016,08,21,10,07,20.40
2016,08,21,10,08,20.40
2016,08,21,10,09,20.40
2016,08,21,10,10,20.50
2016,08,21,10,11,20.50
2016,08,21,10,12,20.60
2016,08,21,10,13,20.60
2016,08,21,10,14,20.70
2016,08,21,10,15,20.70
2016,08,21,10,16,20.80
2016,08,21,10,17,20.80
2016,08,21,10,18,20.90
2016,08,21,10,19,21.00
2016,08,21,10,20,21.00
2016,08,21,10,21,21.10
2016,08,21,10,22,21.20
2016,08,21,10,23,21.20
2016,08,21,10,24,21.30
2016,08,21,10,25,21.30
2016,08,21,10,26,21.40
2016,08,21,10,27,21.40
2016,08,21,10,28,21.50
2016,08,21,10,29,21.60
2016,08,21,10,30,21.60
2016,08,21,10,31,21.70
2016,08,21,10,32,21.80
2016,08,21,10,33,21.80
2016,08,21,10,34,21.90
2016,08,21,10,35,21.90
2016,08,21,10,36,22.00
2016,08,21,10,37,22.10
2016,08,21,10,38,22.10
2016,08,21,10,39,22.10
2016,08,21,10,40,22.10
2016,08,21,10,41,22.10
2016,08,21,10,42,22.10
2016,08,21,10,43,22.10
2016,08,21,10,44,22.10
2016,08,21,10,45,22.20
2016,08,21,10,46,22.20
2016,08,21,10,47,22.30
2016,08,21,10,48,22.30
2016,08,21,10,49,22.40
2016,08,21,10,50,22.40
2016,08,21,10,51,22.40
2016,08,21,10,52,22.40
2016,08,21,10,53,22.30
2016,08,21,10,54,22.30
2016,08,21,10,55,22.30
2016,08,21,10,56,22.30
2016,08,21,10,57,22.30
2016,08,21,10,58,22.30
2016,08,21,10,59,22.20
2016,08,21,11,00,22.10
2016,08,21,11,01,22.00
2016,08,21,11,02,21.90
2016,08,21,11,03,21.90
2016,08,21,11,04,21.90
2016,08,21,11,05,21.90
2016,08,21,11,06,21.90
2016,08,21,11,07,21.90
2016,08,21,11,08,21.90
2016,08,21,11,09,21.80
2016,08,21,11,10,21.70
2016,08,21,11,11,21.60
2016,08,21,11,12,21.50
2016,08,21,11,13,21.50
2016,08,21,11,14,21.50
2016,08,21,11,15,21.60
2016,08,21,11,16,21.60
2016,08,21,11,17,21.60
2016,08,21,11,18,21.60
2016,08,21,11,19,21.50
2016,08,21,11,20,21.50
2016,08,21,11,21,21.40
2016,08,21,11,22,21.50
2016,08,21,11,23,21.40
2016,08,21,11,24,21.40
2016,08,21,11,25,21.30
2016,08,21,11,26,21.30
2016,08,21,11,27,21.20
2016,08,21,11,28,21.20
2016,08,21,11,29,21.20
2016,08,21,11,30,21.20
2016,08,21,11,31,21.20
2016,08,21,11,32,21.20
2016,08,21,11,33,21.20
2016,08,21,11,34,21.10
2016,08,21,11,35,21.10
2016,08,21,11,36,21.10
2016,08,21,11,37,21.20
2016,08,21,11,38,21.20
2016,08,21,11,39,21.30
2016,08,21,11,40,21.30
2016,08,21,11,41,21.40
2016,08,21,11,42,21.50
2016,08,21,11,43,21.60
2016,08,21,11,44,21.60
2016,08,21,11,45,21.60
2016,08,21,11,46,21.70
2016,08,21,11,47,21.70
2016,08,21,11,48,21.80
2016,08,21,11,49,21.80
2016,08,21,11,50,21.90
2016,08,21,11,51,21.90
2016,08,21,11,52,22.00
2016,08,21,11,53,22.10
2016,08,21,11,54,22.10
2016,08,21,11,55,22.20
2016,08,21,11,56,22.20
2016,08,21,11,57,22.30
2016,08,21,11,58,22.30
2016,08,21,11,59,22.40
2016,08,21,12,00,22.50
2016,08,21,12,01,22.60
2016,08,21,12,02,22.70
2016,08,21,12,03,22.70
2016,08,21,12,04,22.70
2016,08,21,12,05,22.80
2016,08,21,12,06,22.90
2016,08,21,12,07,22.90
2016,08,21,12,08,22.90
2016,08,21,12,09,22.90
2016,08,21,12,10,22.90
2016,08,21,12,11,22.90
2016,08,21,12,12,22.80
2016,08,21,12,13,22.70
2016,08,21,12,14,22.60
2016,08,21,12,15,22.50
2016,08,21,12,16,22.40
2016,08,21,12,17,22.40
2016,08,21,12,18,22.40
2016,08,21,12,19,22.40
2016,08,21,12,20,22.30
2016,08,21,12,21,22.30
2016,08,21,12,22,22.30
2016,08,21,12,23,22.30
2016,08,21,12,24,22.30
2016,08,21,12,25,22.30
2016,08,21,12,26,22.20
2016,08,21,12,27,22.20
2016,08,21,12,28,22.20
2016,08,21,12,29,22.20
2016,08,21,12,30,22.30
2016,08,21,12,31,22.30
2016,08,21,12,32,22.40
2016,08,21,12,33,22.50
2016,08,21,12,34,22.60
2016,08,21,12,35,22.60
2016,08,21,12,36,22.70
2016,08,21,12,37,22.80
2016,08,21,12,38,22.80
2016,08,21,12,39,22.80
2016,08,21,12,40,22.80
2016,08,21,12,41,22.80
2016,08,21,12,42,22.80
2016,08,21,12,43,22.80
2016,08,21,12,44,22.80
2016,08,21,12,45,22.90
2016,08,21,12,46,22.90
2016,08,21,12,47,22.90
2016,08,21,12,48,22.90
2016,08,21,12,49,22.90
2016,08,21,12,50,22.90
2016,08,21,12,51,22.90
2016,08,21,12,52,22.90
2016,08,21,12,53,22.90
2016,08,21,12,54,22.90
2016,08,21,12,55,22.90
2016,08,21,12,56,22.80
2016,08,21,12,57,22.80
2016,08,21,12,58,22.80
2016,08,21,12,59,22.70
2016,08,21,13,00,22.70
2016,08,21,13,01,22.60
2016,08,21,13,02,22.60
2016,08,21,13,03,22.60
2016,08,21,13,04,22.70
2016,08,21,13,05,22.70
2016,08,21,13,06,22.60
2016,08,21,13,07,22.70
2016,08,21,13,08,22.70
2016,08,21,13,09,22.60
2016,08,21,13,10,22.60
2016,08,21,13,11,22.60
2016,08,21,13,12,22.50
2016,08,21,13,13,22.50
2016,08,21,13,14,22.40
2016,08,21,13,15,22.40
2016,08,21,13,16,22.40
2016,08,21,13,17,22.30
2016,08,21,13,18,22.30
2016,08,21,13,19,22.30
2016,08,21,13,20,22.30
2016,08,21,13,21,22.30
2016,08,21,13,22,22.30
2016,08,21,13,23,22.30
2016,08,21,13,24,22.20
2016,08,21,13,25,22.20
2016,08,21,13,26,22.20
2016,08,21,13,27,22.10
2016,08,21,13,28,22.10
2016,08,21,13,29,22.10
2016,08,21,13,30,22.00
2016,08,21,13,31,22.00
2016,08,21,13,32,22.00
2016,08,21,13,33,22.10
2016,08,21,13,34,22.10
2016,08,21,13,35,22.10
2016,08,21,13,36,22.10
2016,08,21,13,37,22.10
2016,08,21,13,38,22.10
2016,08,21,13,39,22.10
2016,08,21,13,40,22.10
2016,08,21,13,41,22.10
2016,08,21,13,42,22.10
2016,08,21,13,43,22.10
2016,08,21,13,44,22.10
2016,08,21,13,45,22.10
2016,08,21,13,46,22.10
2016,08,21,13,47,22.10
2016,08,21,13,48,22.10
2016,08,21,13,49,22.10
2016,08,21,13,50,22.10
2016,08,21,13,51,22.10
2016,08,21,13,52,22.10
2016,08,21,13,53,22.00
2016,08,21,13,54,22.00
2016,08,21,13,55,22.00
2016,08,21,13,56,22.00
2016,08,21,13,57,22.00
2016,08,21,13,58,21.90
2016,08,21,13,59,21.90
2016,08,21,14,00,21.90
2016,08,21,14,01,21.80
2016,08,21,14,02,21.80
2016,08,21,14,03,21.80
2016,08,21,14,04,21.80
2016,08,21,14,05,21.80
2016,08,21,14,06,21.80
2016,08,21,14,07,21.80
2016,08,21,14,08,21.70
2016,08,21,14,09,21.70
2016,08,21,14,10,21.60
2016,08,21,14,11,21.60
2016,08,21,14,12,21.60
2016,08,21,14,13,21.60
2016,08,21,14,14,21.60
2016,08,21,14,15,21.60
2016,08,21,14,16,21.60
2016,08,21,14,17,21.60
2016,08,21,14,18,21.60
2016,08,21,14,19,21.60
2016,08,21,14,20,21.50
2016,08,21,14,21,21.50
2016,08,21,14,22,21.50
2016,08,21,14,23,21.40
2016,08,21,14,24,21.40
2016,08,21,14,25,21.40
2016,08,21,14,26,21.30
2016,08,21,14,27,21.30
2016,08,21,14,28,21.30
2016,08,21,14,29,21.30
2016,08,21,14,30,21.20
2016,08,21,14,31,21.20
2016,08,21,14,32,21.20
2016,08,21,14,33,21.20
2016,08,21,14,34,21.20
2016,08,21,14,35,21.20
2016,08,21,14,36,21.20
2016,08,21,14,37,21.20
2016,08,21,14,38,21.20
2016,08,21,14,39,21.20
2016,08,21,14,40,21.20
2016,08,21,14,41,21.10
2016,08,21,14,42,21.10
2016,08,21,14,43,21.10
2016,08,21,14,44,21.00
2016,08,21,14,45,21.00
2016,08,21,14,46,20.90
2016,08,21,14,47,20.90
2016,08,21,14,48,20.80
2016,08,21,14,49,20.80
2016,08,21,14,50,20.70
2016,08,21,14,51,20.70
2016,08,21,14,52,20.60
2016,08,21,14,53,20.60
2016,08,21,14,54,20.50
2016,08,21,14,55,20.50
2016,08,21,14,56,20.50
2016,08,21,14,57,20.50
2016,08,21,14,58,20.50
2016,08,21,14,59,20.50
2016,08,21,15,00,20.50
2016,08,21,15,01,20.60
2016,08,21,15,02,20.70
2016,08,21,15,03,20.80
2016,08,21,15,04,20.80
2016,08,21,15,05,20.90
2016,08,21,15,06,21.00
2016,08,21,15,07,21.00
2016,08,21,15,08,21.10
2016,08,21,15,09,21.10
2016,08,21,15,10,21.10
2016,08,21,15,11,21.10
2016,08,21,15,12,21.10
2016,08,21,15,13,21.10
2016,08,21,15,14,21.10
2016,08,21,15,15,21.20
2016,08,21,15,16,21.20
2016,08,21,15,17,21.20
2016,08,21,15,18,21.30
2016,08,21,15,19,21.30
2016,08,21,15,20,21.40
2016,08,21,15,21,21.50
2016,08,21,15,22,21.50
2016,08,21,15,23,21.60
2016,08,21,15,24,21.60
2016,08,21,15,25,21.60
2016,08,21,15,26,21.60
2016,08,21,15,27,21.60
2016,08,21,15,28,21.70
2016,08,21,15,29,21.70
2016,08,21,15,30,21.70
2016,08,21,15,31,21.70
2016,08,21,15,32,21.60
2016,08,21,15,33,21.50
2016,08,21,15,34,21.40
2016,08,21,15,35,21.40
2016,08,21,15,36,21.30
2016,08,21,15,37,21.20
2016,08,21,15,38,21.10
2016,08,21,15,39,21.00
2016,08,21,15,40,21.00
2016,08,21,15,41,20.90
2016,08,21,15,42,20.90
2016,08,21,15,43,20.80
2016,08,21,15,44,20.80
2016,08,21,15,45,20.70
2016,08,21,15,46,20.70
2016,08,21,15,47,20.70
2016,08,21,15,48,20.60
2016,08,21,15,49,20.60
2016,08,21,15,50,20.60
2016,08,21,15,51,20.60
2016,08,21,15,52,20.60
2016,08,21,15,53,20.60
2016,08,21,15,54,20.60
2016,08,21,15,55,20.60
2016,08,21,15,56,20.60
2016,08,21,15,57,20.70
2016,08,21,15,58,20.70
2016,08,21,15,59,20.70
2016,08,21,16,00,20.70
2016,08,21,16,01,20.70
2016,08,21,16,02,20.70
2016,08,21,16,03,20.80
2016,08,21,16,04,20.80
2016,08,21,16,05,20.80
2016,08,21,16,06,20.80
2016,08,21,16,07,20.80
2016,08,21,16,08,20.80
2016,08,21,16,09,20.80
2016,08,21,16,10,20.80
2016,08,21,16,11,20.70
2016,08,21,16,12,20.70
2016,08,21,16,13,20.70
2016,08,21,16,14,20.60
2016,08,21,16,15,20.40
2016,08,21,16,16,20.30
2016,08,21,16,17,20.30
2016,08,21,16,18,20.20
2016,08,21,16,19,20.20
2016,08,21,16,20,20.20
2016,08,21,16,21,20.30
2016,08,21,16,22,20.30
2016,08,21,16,23,20.30
2016,08,21,16,24,20.30
2016,08,21,16,25,20.30
2016,08,21,16,26,20.30
2016,08,21,16,27,20.30
2016,08,21,16,28,20.30
2016,08,21,16,29,20.30
2016,08,21,16,30,20.40
2016,08,21,16,31,20.40
2016,08,21,16,32,20.50
2016,08,21,16,33,20.50
2016,08,21,16,34,20.40
2016,08,21,16,35,20.40
2016,08,21,16,36,20.40
2016,08,21,16,37,20.40
2016,08,21,16,38,20.40
2016,08,21,16,39,20.50
2016,08,21,16,40,20.50
2016,08,21,16,41,20.50
2016,08,21,16,42,20.40
2016,08,21,16,43,20.40
2016,08,21,16,44,20.50
2016,08,21,16,45,20.50
2016,08,21,16,46,20.60
2016,08,21,16,47,20.60
2016,08,21,16,48,20.60
2016,08,21,16,49,20.50
2016,08,21,16,50,20.40
2016,08,21,16,51,20.40
2016,08,21,16,52,20.50
2016,08,21,16,53,20.50
2016,08,21,16,54,20.50
2016,08,21,16,55,20.50
2016,08,21,16,56,20.40
2016,08,21,16,57,20.40
2016,08,21,16,58,20.40
2016,08,21,16,59,20.40
2016,08,21,17,00,20.40
2016,08,21,17,01,20.40
2016,08,21,17,02,20.40
2016,08,21,17,03,20.40
2016,08,21,17,04,20.40
2016,08,21,17,05,20.40
2016,08,21,17,06,20.40
2016,08,21,17,07,20.40
2016,08,21,17,08,20.40
2016,08,21,17,09,20.40
2016,08,21,17,10,20.40
2016,08,21,17,11,20.40
2016,08,21,17,12,20.50
2016,08,21,17,13,20.50
2016,08,21,17,14,20.60
2016,08,21,17,15,20.50
2016,08,21,17,16,20.50
2016,08,21,17,17,20.50
2016,08,21,17,18,20.50
2016,08,21,17,19,20.50
2016,08,21,17,20,20.50
2016,08,21,17,21,20.40
2016,08,21,17,22,20.40